SCP
0 0 0 0 0 0 0 0 0 0 0 0 0 0 1 2 4 6 8 10 12 11 9 7 6 5 5 5 5 5 5 5 5 6 6 6 6 5 5 4 4 3 3 3
0 0 0 0 0 0 0 0 0 0 0 0 0 0 1 2 4 6 8 10 10 9 7 6 5 4 4 5 5 4 4 4 4 5 5 5 5 5 5 4 4 3 3 3
0 0 0 0 0 0 0 0 0 0 0 0 0 0 1 2 4 6 7 8 8 6 5 3 3 3 3 3 3 3 3 3 3 3 4 4 4 4 4 4 4 4 3 3
0 0 0 0 0 0 0 0 0 0 0 0 0 0 0 1 3 5 5 5 4 4 3 2 1 2 2 2 3 3 2 2 2 2 3 3 3 3 3 3 3 3 3 3
0 0 0 0 0 0 0 0 0 0 0 0 0 0 0 1 2 3 4 3 2 2 1 1 1 1 1 2 2 3 3 3 2 2 2 3 2 2 2 2 2 3 3 3
0 0 0 0 0 0 0 0 0 0 0 0 0 0 0 0 1 2 2 2 2 1 1 1 1 1 1 2 3 3 3 3 2 2 2 2 2 2 1 1 1 2 2 2
0 0 0 0 0 0 0 0 0 0 0 0 0 0 0 0 0 1 1 1 1 1 1 1 1 1 2 2 3 3 3 2 2 2 2 2 2 1 1 1 1 1 2 2
0 0 0 0 0 0 0 0 0 0 0 0 0 0 0 0 0 1 1 1 1 1 1 1 1 1 2 2 2 2 2 2 2 2 2 2 2 1 1 1 1 1 1 1
0 0 0 0 0 0 0 0 0 0 0 0 0 0 0 0 0 1 1 1 0 0 0 0 1 1 1 1 1 2 2 2 2 2 2 2 2 2 1 1 1 1 1 1
0 0 0 0 0 0 0 0 0 0 0 0 0 0 0 0 0 0 0 0 0 0 0 0 0 0 0 1 1 1 1 2 2 2 2 2 2 2 2 1 1 1 1 1
0 0 0 0 0 0 0 0 0 0 0 0 0 0 0 0 0 0 0 0 0 0 0 0 0 0 0 0 1 1 1 1 1 1 1 1 1 1 2 1 1 1 1 1
0 0 0 0 0 0 0 0 0 0 0 0 0 0 0 0 0 0 0 0 0 0 0 0 0 0 0 1 1 1 1 1 1 1 1 1 1 1 1 1 1 1 1 1
0 0 0 0 0 0 0 0 0 0 0 0 0 0 0 0 0 0 0 0 0 0 0 0 0 0 0 0 1 1 1 1 0 1 1 1 0 0 0 0 0 0 0 0
0 0 0 0 0 0 0 0 0 0 0 0 0 0 0 0 0 0 0 0 0 0 0 0 0 0 0 0 1 1 1 1 0 1 1 0 0 0 0 0 0 0 0 0
0 0 0 0 0 0 0 0 0 0 0 0 0 0 0 0 0 0 0 0 0 0 0 0 0 0 0 0 1 1 1 1 0 0 0 0 0 0 0 0 0 0 0 0
0 0 0 0 0 0 0 0 0 0 0 0 0 0 0 0 0 0 0 0 0 0 0 0 0 0 0 0 0 1 1 1 0 0 0 0 0 0 0 0 0 0 0 0
0 0 0 0 0 0 0 0 0 0 0 0 0 0 0 0 0 0 0 0 0 0 0 0 0 0 0 0 0 0 1 1 1 0 0 0 0 0 0 0 0 0 0 0
0 0 0 0 0 0 0 0 0 0 0 0 0 0 0 0 0 0 0 0 0 0 0 0 0 0 0 0 0 0 1 1 1 0 0 0 0 0 0 0 0 0 0 0
0 0 0 0 0 0 0 0 0 0 0 0 0 0 0 0 0 0 0 0 0 0 0 0 0 0 0 0 0 0 0 1 1 1 1 0 0 0 0 0 0 0 0 0
0 0 0 0 0 0 0 0 0 0 0 0 0 0 0 0 0 0 0 0 0 0 0 0 0 0 0 0 0 0 0 1 1 1 1 1 0 0 0 0 0 0 0 0
0 0 0 0 0 0 0 0 0 0 0 0 0 0 0 0 0 0 0 0 0 0 0 0 0 0 0 0 0 0 0 0 0 0 0 0 0 0 0 0 0 0 0 0
0 0 0 0 0 0 0 0 0 0 0 0 0 0 0 0 0 0 0 0 0 0 0 0 0 0 0 0 0 0 0 0 0 0 0 0 0 0 0 0 0 0 0 0
0 0 0 0 0 0 0 0 0 0 0 0 0 0 0 0 0 0 0 0 0 0 0 0 0 0 0 0 0 0 0 0 0 0 0 0 0 0 0 0 0 0 0 0
0 0 0 0 0 0 0 0 0 0 0 0 0 0 0 0 0 0 0 0 0 0 0 0 0 0 0 0 0 0 0 0 0 0 0 0 0 0 0 0 0 0 0 0
0 0 0 0 0 0 0 0 0 0 0 0 0 0 0 0 0 0 0 0 0 0 0 0 0 0 0 0 0 0 0 0 0 0 0 0 0 0 0 0 0 0 0 0
0 0 0 0 0 0 0 0 0 0 0 0 0 0 0 0 0 0 0 0 0 0 0 0 0 0 0 0 0 0 0 0 0 0 0 0 0 0 0 0 0 0 0 0
Wind_Speed
2 2 4 7 8 8 5 3 4 5 7 6 5 3 4 4 7 9 8 10 12 10 8 8 8 8 7 5 6 4 3 2 1 1 2 4 5 5 5 5 7 6 6 6
3 6 12 9 5 2 2 3 4 5 7 6 5 5 6 6 2 6 8 9 10 8 6 6 7 6 7 6 6 5 4 2 1 1 2 3 4 4 4 4 5 6 6 6
7 8 5 2 3 5 4 2 2 3 5 6 5 7 7 6 7 7 6 6 8 9 7 5 5 5 5 5 5 4 3 2 1 1 1 2 2 3 3 4 4 5 6 6
3 2 2 2 3 1 2 2 4 5 5 4 3 3 6 3 5 4 4 4 5 6 6 5 5 4 4 4 4 4 3 3 1 1 1 1 2 3 4 4 4 5 5 5
4 3 3 2 2 1 1 2 4 4 3 4 4 1 7 1 2 3 4 5 5 6 6 6 6 6 5 5 5 4 4 2 1 1 1 0 2 3 4 4 5 5 5 5
4 4 1 2 2 2 3 7 8 7 5 2 3 1 7 4 5 4 4 5 6 7 7 7 6 6 5 5 4 4 3 2 1 1 0 0 2 4 5 5 5 5 4 4
6 6 5 1 3 6 7 7 6 7 6 4 3 0 7 7 5 7 8 8 9 8 7 7 7 7 6 6 5 4 4 3 2 1 1 1 2 3 4 5 5 5 4 4
1 5 4 2 1 0 1 8 6 3 4 6 4 1 7 5 5 6 8 8 8 8 8 9 9 8 7 7 6 5 5 4 3 2 1 1 1 2 3 4 4 4 4 4
1 3 5 4 2 2 1 2 8 7 1 2 4 3 5 3 3 6 7 7 8 8 9 8 7 7 7 7 7 7 6 4 4 3 2 1 1 2 3 4 4 3 4 5
3 2 5 6 3 2 3 3 5 4 1 3 6 4 4 6 8 8 8 8 9 7 6 5 5 6 6 7 6 6 6 6 4 3 2 1 1 1 2 2 4 4 5 5
4 3 5 5 2 3 2 1 3 3 5 5 3 7 6 6 6 6 6 4 3 3 3 4 5 5 6 6 6 6 6 5 4 4 3 2 2 1 1 1 3 3 4 5
4 5 2 6 7 4 2 2 5 3 5 5 4 7 9 5 5 5 5 5 6 5 3 1 3 3 4 6 6 6 6 6 5 5 4 3 2 1 1 1 2 3 3 4
5 6 4 10 10 8 4 3 2 4 3 4 4 3 9 11 12 11 11 10 10 10 10 7 5 3 3 4 5 6 6 6 6 5 5 4 3 2 2 2 2 2 3 3
7 5 6 5 7 6 7 10 9 3 3 5 4 2 8 11 11 11 12 11 12 13 13 12 10 7 5 4 4 5 6 7 6 6 5 5 4 4 3 2 2 2 2 2
6 3 5 6 7 6 8 11 11 7 5 5 6 5 5 7 7 8 10 13 16 16 16 15 14 11 9 7 6 5 6 6 7 7 6 6 5 4 4 3 2 1 1 1
3 3 1 3 6 7 6 9 5 7 7 8 8 6 6 6 6 9 11 13 14 14 15 15 15 14 13 11 9 7 6 7 7 8 8 7 6 5 5 4 3 2 1 0
2 4 2 4 6 5 4 7 7 8 9 6 5 4 7 9 11 7 8 11 13 13 14 15 14 13 13 13 12 10 9 6 7 9 8 8 7 7 6 6 5 4 3 2
7 5 4 2 3 1 2 6 11 11 10 9 6 5 7 9 9 3 5 9 11 12 13 12 12 13 13 13 14 13 10 6 6 7 8 8 8 8 7 6 6 5 3 3
7 8 5 3 3 4 4 4 4 1 4 6 5 7 9 10 8 3 4 6 7 8 9 9 9 9 10 12 14 14 12 9 6 6 7 9 9 9 9 8 8 6 5 4
5 5 5 3 3 5 2 10 12 2 3 4 7 8 10 10 8 6 9 11 12 11 9 9 9 9 10 11 11 12 12 10 9 9 8 8 9 11 11 11 8 6 5 6
5 5 2 1 3 1 6 12 9 2 4 7 7 8 9 6 7 11 13 13 12 12 11 10 10 8 9 10 9 10 10 10 11 12 10 8 8 11 11 10 8 8 7 7
3 4 4 3 2 2 7 6 4 3 5 7 9 10 11 12 14 15 14 13 13 13 12 11 9 9 8 8 8 9 10 10 10 11 10 9 8 9 10 10 10 10 10 9
4 1 1 2 0 2 2 2 4 4 7 8 9 12 13 15 16 17 16 15 14 13 13 10 10 10 9 8 7 9 10 10 10 10 10 9 8 8 9 11 12 10 10 9
5 4 4 3 1 3 4 4 4 6 8 11 13 15 15 17 18 18 16 14 13 12 12 10 10 10 10 9 9 9 10 9 9 10 10 9 8 8 9 10 10 11 11 10
4 5 3 2 3 6 5 6 8 10 12 15 16 16 17 17 18 17 15 14 13 12 10 9 9 11 12 10 10 10 9 9 9 9 9 8 8 8 9 10 11 13 12 13
2 2 1 2 5 5 9 10 12 14 16 17 17 17 16 15 16 16 14 12 11 11 10 10 10 11 12 11 11 10 9 8 9 8 8 6 6 6 7 8 8 11 11 16
Wind_Direction
269 89 248 240 212 212 240 277 308 318 339 49 59 46 15 48 99 114 114 111 107 106 111 106 103 104 100 91 90 89 89 91 129 208 231 246 255 258 261 257 256 254 249 240
348 262 243 243 251 257 328 8 351 346 356 36 25 15 8 26 69 134 128 123 117 115 111 110 111 110 106 105 102 95 93 109 133 211 235 246 256 262 257 265 270 266 261 252
223 247 239 240 342 357 4 62 42 4 1 25 43 355 351 2 57 84 95 116 126 131 129 122 112 113 110 112 120 124 133 132 142 213 260 300 309 308 308 299 290 284 278 266
264 308 2 353 320 344 321 345 36 22 33 329 48 322 306 348 67 90 113 127 139 136 136 141 141 137 137 148 148 150 156 154 159 129 70 330 309 295 286 287 287 293 288 283
317 321 342 331 310 42 251 15 20 355 1 352 357 65 285 344 153 194 188 177 176 175 167 172 178 175 177 176 173 172 169 177 185 155 137 328 296 282 288 296 302 302 298 291
302 303 278 251 320 30 58 33 11 25 54 6 280 196 282 253 222 201 208 205 204 201 193 193 197 190 194 192 183 175 172 194 213 195 256 300 298 302 310 312 310 305 299 296
325 330 329 353 34 14 63 67 25 3 9 278 279 191 260 263 205 188 201 211 216 210 201 203 206 205 206 199 190 178 170 196 215 208 249 276 292 302 300 302 305 307 305 300
342 318 316 351 108 206 110 125 145 194 240 283 328 253 263 259 199 200 210 216 219 217 212 210 209 205 203 196 186 181 181 196 203 194 227 268 290 296 295 298 300 302 299 294
159 279 302 313 271 141 173 197 169 146 248 309 295 279 297 292 253 232 231 227 227 225 220 217 213 202 195 185 187 184 179 186 190 189 202 243 275 301 306 310 311 305 302 301
138 266 303 317 347 346 177 170 82 92 156 284 299 294 256 241 246 245 238 237 243 243 238 224 206 196 191 188 187 179 177 183 188 187 200 207 242 281 298 314 317 312 309 309
105 115 316 351 344 286 319 54 113 139 167 168 262 277 268 244 242 236 245 255 261 263 244 219 211 202 194 187 182 180 181 180 185 190 193 196 229 251 283 302 307 307 309 311
120 110 300 284 278 268 175 182 149 161 244 192 192 271 329 355 9 21 15 22 21 15 3 287 244 218 202 197 195 192 191 191 197 195 192 197 203 211 240 292 308 313 315 319
118 94 25 344 343 354 358 316 249 170 159 194 198 258 357 26 32 30 30 25 19 16 12 2 345 309 259 231 215 205 202 202 200 191 188 190 193 198 223 257 289 312 320 333
105 114 154 205 243 274 301 305 303 264 214 230 201 115 357 9 16 19 24 23 22 18 13 5 351 332 314 286 254 233 221 209 199 189 186 193 200 202 208 218 249 284 313 337
96 153 209 225 246 265 286 297 298 296 255 175 131 94 11 355 9 20 23 21 20 13 8 4 356 346 331 319 301 279 253 228 203 189 191 200 201 195 193 196 215 249 294 326
110 166 216 288 276 288 308 331 360 32 34 89 97 64 348 344 15 25 24 20 14 4 358 354 352 349 342 327 313 294 272 245 214 200 201 197 189 187 190 193 196 204 230 343
173 152 142 271 296 343 9 3 73 66 33 58 64 16 344 355 358 6 16 15 4 353 348 346 343 340 334 328 317 304 279 262 224 211 203 193 188 189 193 191 187 190 191 166
167 147 151 214 354 296 152 78 102 96 62 51 52 9 353 337 313 307 30 8 345 338 336 333 332 332 331 328 327 319 308 281 246 223 209 196 190 192 189 184 187 188 175 170
166 150 145 151 203 239 137 49 356 231 85 25 10 347 336 322 306 260 7 345 320 313 311 310 312 314 320 325 330 327 321 302 273 247 227 207 194 190 187 189 188 183 171 170
52 89 126 158 200 238 309 335 322 124 123 1 348 333 330 340 337 304 323 322 314 310 306 304 307 312 319 321 327 329 326 323 308 286 260 228 201 191 191 192 184 175 170 171
11 11 29 248 245 87 330 320 336 20 303 312 316 313 315 308 274 283 298 300 297 296 294 294 297 301 303 308 317 321 323 320 312 312 296 260 218 198 192 188 178 170 168 164
56 29 7 357 319 329 342 10 42 268 276 292 302 302 298 289 286 289 290 289 289 290 287 284 284 285 287 292 301 307 308 306 308 310 305 284 245 210 193 182 180 173 169 167
53 31 133 86 151 218 269 215 235 257 284 288 286 286 285 285 285 286 285 284 284 282 282 279 277 282 283 283 283 290 296 298 301 304 301 290 268 226 192 181 180 176 174 174
5 357 103 97 110 270 273 263 266 270 271 276 277 279 279 279 281 284 284 283 281 279 279 278 278 280 282 281 278 273 284 290 290 291 295 293 271 236 201 185 180 180 181 180
355 2 45 71 317 315 299 281 277 283 284 284 284 282 281 281 284 286 287 287 285 285 284 279 275 277 280 280 276 274 278 287 285 285 288 291 274 239 206 191 187 185 189 185
8 48 41 272 263 259 273 278 284 290 291 292 293 293 290 286 287 291 292 292 291 291 289 287 281 278 280 280 277 277 273 275 278 276 281 284 284 249 210 190 186 194 185 183